Flag for Canada Weather past 2 weeks in Kitchener, Ontario, Canada

Now
70 °F

Scattered clouds.


Feels Like: 70 °F
Forecast: 53 / 73 °F
Wind: 6 mph from West

Location: Waterloo Well

Current Time: Aug 29, 2015 at 11:48:19 AM

Latest Report: Aug 29, 2015 at 11:00 AM


Visibility: 9 mi

Pressure: 30.17 "Hg

Humidity: 78%

Dew point: 63 °F

Location of KitchenerLocation

Historic Weather in Kitchener — Graph

°F

Kitchener temperature yesterday

Maximum temperature yesterday: 73 °F (at 4:00 PM)
Minimum temperature yesterday: 45 °F (at 3:00 AM)
Average temperature yesterday: 57 °F

Past Weeks' High & Low Weather Summary

 TemperatureHumidityPressure
High86 °F (Aug 16, 4:00 PM)100% (Aug 14, 11:48 AM)30.24 "Hg (Aug 14, 11:48 AM)
Low45 °F (Aug 28, 3:00 AM)43% (Aug 24, 5:00 PM)29.69 "Hg (Aug 20, 6:00 AM)
Average66 °F81%30.02 "Hg
* Reported Aug 14 10:00 AM — Aug 29 10:04 AM, Kitchener, Weather by CustomWeather, © 2015

Note: Actual official high and low records may vary slightly from our data, if they occured in-between our weather recording intervals... More about our weather records

Advertising

Kitchener weather history for previous 24 hours

 ConditionsComfort  
Time TempWeatherWind HumidityBarometerVisibility
10:04 AM
Sat, Aug 29
63 °FFog.No wind94%30.17 "Hg6 mi
9:00 AM59 °FFog.2 mph100%30.17 "Hg4 mi
8:00 AM57 °FFog.2 mph94%30.17 "Hg3 mi
7:00 AM54 °FFog.No wind100%30.16 "Hg2 mi
6:50 AM54 °FFog.No wind100%30.15 "Hg2 mi
6:00 AM54 °FFog.2 mph100%30.14 "Hg2 mi
5:04 AM52 °FFog.No wind100%30.15 "Hg2 mi
5:01 AM54 °FFog.2 mph94%30.15 "Hg2 mi
4:02 AM54 °FLight rain. Fog.No wind100%30.16 "Hg1 mi
3:00 AM55 °FFog.2 mph94%30.16 "Hg4 mi
2:56 AM55 °FFog.2 mph100%30.16 "Hg5 mi
2:00 AM55 °FPassing clouds.2 mph94%30.16 "Hg7 mi
1:00 AM55 °FPassing clouds.No wind94%30.18 "Hg8 mi
12:00 AM55 °FPassing clouds.No wind100%30.17 "Hg9 mi
11:00 PM
Fri, Aug 28
55 °FPassing clouds.2 mph94%30.17 "Hg9 mi
10:00 PM57 °FPassing clouds.2 mph94%30.17 "Hg9 mi
9:00 PM59 °FSunny.2 mph88%30.17 "Hg9 mi
8:00 PM64 °FSunny.5 mph73%30.16 "Hg9 mi
7:00 PM70 °FSunny.5 mph57%30.16 "Hg9 mi
6:00 PM72 °FPassing clouds.6 mph53%30.16 "Hg9 mi
5:00 PM73 °FScattered clouds.7 mph53%30.15 "Hg9 mi
4:00 PM73 °FPassing clouds.7 mph50%30.17 "Hg9 mi
3:00 PM72 °FPartly sunny.3 mph53%30.19 "Hg9 mi
2:00 PM70 °FPartly sunny.5 mph60%30.20 "Hg9 mi
1:00 PM68 °FScattered clouds.2 mph64%30.21 "Hg9 mi
12:00 PM66 °FScattered clouds.2 mph64%30.23 "Hg9 mi
11:00 AM63 °FPartly sunny.2 mph73%30.24 "Hg9 mi
Weather by CustomWeather, © 2015

See weather overviewHow to use our weather pages